sat.trackr.live / text

‹ back to catalog

STARLINK-11617 [DTC]

NORAD 63184 · 2025-048B

PAYLOAD ACTIVE UNKNOWN

§ Identity

Operator
Country
US
Launch date
2025-03-13
Launch site
AFETR
Launch vehicle
Mass (kg)
RCS (m²)

Purposes: comms

External: N2YO · Heavens-Above · Gunter

§ Orbital elements

Epoch: 2026-09-20T14:30:52.221312Z

Period
91.67 min
Inclination
42.9991°
Eccentricity
0.0001437
Mean motion
15.70902441 rev/d
Perigee alt
355.3 km
Apogee alt
357.3 km
Semi-major
6,734.5 km
B*
1.1166e-3
RAAN
225.2491°
Arg perigee
278.2731°
Mean anomaly
81.7973°
Rev number
8,917

§ Raw data

STARLINK-11617 [DTC]1 63184U 25048B   26263.60477108  .00145740  00000+0  11166-2 0  99902 63184  42.9991 225.2491 0001437 278.2731  81.7973 15.70902441 89171

JSON: /api/v1/satellites/63184 · /tle

For live sub-satellite position, see the globe view (requires WebGL).

§ Visibility from observer

Set your observer location to see the next 7 days of passes ≥ 10°. The values pass through the URL so the page stays shareable.

No JS? Fill the form by hand. The geolocation button needs JavaScript.